Year,Month,Day,Hour,Minute,Value (Times are PST for temperature in C)
2012,08,29,00,00,16.30
2012,08,29,00,01,16.30
2012,08,29,00,02,16.30
2012,08,29,00,03,16.20
2012,08,29,00,04,16.20
2012,08,29,00,05,16.20
2012,08,29,00,06,16.20
2012,08,29,00,07,16.20
2012,08,29,00,08,16.20
2012,08,29,00,09,16.20
2012,08,29,00,10,16.20
2012,08,29,00,11,16.20
2012,08,29,00,12,16.20
2012,08,29,00,13,16.20
2012,08,29,00,14,16.20
2012,08,29,00,15,16.20
2012,08,29,00,16,16.10
2012,08,29,00,17,16.10
2012,08,29,00,18,16.10
2012,08,29,00,19,16.10
2012,08,29,00,20,16.10
2012,08,29,00,21,16.10
2012,08,29,00,22,16.00
2012,08,29,00,23,16.00
2012,08,29,00,24,16.00
2012,08,29,00,25,15.90
2012,08,29,00,26,15.90
2012,08,29,00,27,15.90
2012,08,29,00,28,15.90
2012,08,29,00,29,15.90
2012,08,29,00,30,15.90
2012,08,29,00,31,15.90
2012,08,29,00,32,15.90
2012,08,29,00,33,15.90
2012,08,29,00,34,15.90
2012,08,29,00,35,15.90
2012,08,29,00,36,15.90
2012,08,29,00,37,15.90
2012,08,29,00,38,16.00
2012,08,29,00,39,16.00
2012,08,29,00,40,16.00
2012,08,29,00,41,16.00
2012,08,29,00,42,16.00
2012,08,29,00,43,16.00
2012,08,29,00,44,16.00
2012,08,29,00,45,16.00
2012,08,29,00,46,16.00
2012,08,29,00,47,16.00
2012,08,29,00,48,16.10
2012,08,29,00,49,16.10
2012,08,29,00,50,16.10
2012,08,29,00,51,16.10
2012,08,29,00,52,16.10
2012,08,29,00,53,16.10
2012,08,29,00,54,16.00
2012,08,29,00,55,16.00
2012,08,29,00,56,16.00
2012,08,29,00,57,16.00
2012,08,29,00,58,16.00
2012,08,29,00,59,16.00
2012,08,29,01,00,16.00
2012,08,29,01,01,16.00
2012,08,29,01,02,16.00
2012,08,29,01,03,16.10
2012,08,29,01,04,16.10
2012,08,29,01,05,16.00
2012,08,29,01,06,16.00
2012,08,29,01,07,16.00
2012,08,29,01,08,16.00
2012,08,29,01,09,16.00
2012,08,29,01,10,16.00
2012,08,29,01,11,16.00
2012,08,29,01,12,15.90
2012,08,29,01,13,15.90
2012,08,29,01,14,15.90
2012,08,29,01,15,15.90
2012,08,29,01,16,15.80
2012,08,29,01,17,15.80
2012,08,29,01,18,15.80
2012,08,29,01,19,15.80
2012,08,29,01,20,15.80
2012,08,29,01,21,15.80
2012,08,29,01,22,15.80
2012,08,29,01,23,15.70
2012,08,29,01,24,15.70
2012,08,29,01,25,15.70
2012,08,29,01,26,15.70
2012,08,29,01,27,15.70
2012,08,29,01,28,15.70
2012,08,29,01,29,15.60
2012,08,29,01,30,15.60
2012,08,29,01,31,15.60
2012,08,29,01,32,15.60
2012,08,29,01,33,15.60
2012,08,29,01,34,15.60
2012,08,29,01,35,15.60
2012,08,29,01,36,15.60
2012,08,29,01,37,15.50
2012,08,29,01,38,15.50
2012,08,29,01,39,15.50
2012,08,29,01,40,15.50
2012,08,29,01,41,15.40
2012,08,29,01,42,15.40
2012,08,29,01,43,15.40
2012,08,29,01,44,15.40
2012,08,29,01,45,15.30
2012,08,29,01,46,15.30
2012,08,29,01,47,15.20
2012,08,29,01,48,15.20
2012,08,29,01,49,15.10
2012,08,29,01,50,15.10
2012,08,29,01,51,15.00
2012,08,29,01,52,15.00
2012,08,29,01,53,15.00
2012,08,29,01,54,15.00
2012,08,29,01,55,15.00
2012,08,29,01,56,15.10
2012,08,29,01,57,15.20
2012,08,29,01,58,15.20
2012,08,29,01,59,15.30
2012,08,29,02,00,15.40
2012,08,29,02,01,15.40
2012,08,29,02,02,15.50
2012,08,29,02,03,15.60
2012,08,29,02,04,15.60
2012,08,29,02,05,15.60
2012,08,29,02,06,15.70
2012,08,29,02,07,15.70
2012,08,29,02,08,15.70
2012,08,29,02,09,15.70
2012,08,29,02,10,15.70
2012,08,29,02,11,15.70
2012,08,29,02,12,15.80
2012,08,29,02,13,15.80
2012,08,29,02,14,15.80
2012,08,29,02,15,15.80
2012,08,29,02,16,15.80
2012,08,29,02,17,15.80
2012,08,29,02,18,15.80
2012,08,29,02,19,15.80
2012,08,29,02,20,15.80
2012,08,29,02,21,15.80
2012,08,29,02,22,15.80
2012,08,29,02,23,15.80
2012,08,29,02,24,15.80
2012,08,29,02,25,15.80
2012,08,29,02,26,15.70
2012,08,29,02,27,15.70
2012,08,29,02,28,15.60
2012,08,29,02,29,15.60
2012,08,29,02,30,15.50
2012,08,29,02,31,15.40
2012,08,29,02,32,15.30
2012,08,29,02,33,15.30
2012,08,29,02,34,15.30
2012,08,29,02,35,15.20
2012,08,29,02,36,15.20
2012,08,29,02,37,15.10
2012,08,29,02,38,15.10
2012,08,29,02,39,15.00
2012,08,29,02,40,15.00
2012,08,29,02,41,15.00
2012,08,29,02,42,15.00
2012,08,29,02,43,15.00
2012,08,29,02,44,15.00
2012,08,29,02,45,15.00
2012,08,29,02,46,15.00
2012,08,29,02,47,14.90
2012,08,29,02,48,14.90
2012,08,29,02,49,14.80
2012,08,29,02,50,14.80
2012,08,29,02,51,14.80
2012,08,29,02,52,14.80
2012,08,29,02,53,14.80
2012,08,29,02,54,14.70
2012,08,29,02,55,14.70
2012,08,29,02,56,14.70
2012,08,29,02,57,14.70
2012,08,29,02,58,14.70
2012,08,29,02,59,14.70
2012,08,29,03,00,14.70
2012,08,29,03,01,14.70
2012,08,29,03,02,14.70
2012,08,29,03,06,14.70
2012,08,29,03,07,14.70
2012,08,29,03,08,14.70
2012,08,29,03,09,14.70
2012,08,29,03,10,14.70
2012,08,29,03,11,14.70
2012,08,29,03,12,14.70
2012,08,29,03,13,14.70
2012,08,29,03,14,14.70
2012,08,29,03,15,14.70
2012,08,29,03,16,14.80
2012,08,29,03,17,14.80
2012,08,29,03,18,14.80
2012,08,29,03,19,14.80
2012,08,29,03,20,14.80
2012,08,29,03,21,14.80
2012,08,29,03,22,14.80
2012,08,29,03,23,14.80
2012,08,29,03,24,14.80
2012,08,29,03,25,14.90
2012,08,29,03,26,14.80
2012,08,29,03,27,14.80
2012,08,29,03,28,14.80
2012,08,29,03,29,14.80
2012,08,29,03,30,14.80
2012,08,29,03,31,14.80
2012,08,29,03,32,14.80
2012,08,29,03,33,14.80
2012,08,29,03,34,14.80
2012,08,29,03,35,14.80
2012,08,29,03,36,14.80
2012,08,29,03,37,14.80
2012,08,29,03,38,14.80
2012,08,29,03,39,14.80
2012,08,29,03,40,14.80
2012,08,29,03,41,14.80
2012,08,29,03,42,14.80
2012,08,29,03,43,14.80
2012,08,29,03,44,14.80
2012,08,29,03,45,14.80
2012,08,29,03,46,14.80
2012,08,29,03,47,14.80
2012,08,29,03,48,14.80
2012,08,29,03,49,14.80
2012,08,29,03,50,14.70
2012,08,29,03,51,14.70
2012,08,29,03,52,14.70
2012,08,29,03,53,14.70
2012,08,29,03,54,14.70
2012,08,29,03,55,14.60
2012,08,29,03,56,14.60
2012,08,29,03,57,14.60
2012,08,29,03,58,14.60
2012,08,29,03,59,14.60
2012,08,29,04,00,14.60
2012,08,29,04,01,14.60
2012,08,29,04,02,14.60
2012,08,29,04,03,14.60
2012,08,29,04,04,14.60
2012,08,29,04,05,14.60
2012,08,29,04,06,14.60
2012,08,29,04,07,14.60
2012,08,29,04,08,14.60
2012,08,29,04,09,14.60
2012,08,29,04,10,14.60
2012,08,29,04,11,14.60
2012,08,29,04,12,14.60
2012,08,29,04,13,14.60
2012,08,29,04,14,14.70
2012,08,29,04,15,14.60
2012,08,29,04,16,14.60
2012,08,29,04,17,14.60
2012,08,29,04,18,14.60
2012,08,29,04,19,14.60
2012,08,29,04,20,14.50
2012,08,29,04,21,14.50
2012,08,29,04,22,14.50
2012,08,29,04,23,14.50
2012,08,29,04,24,14.40
2012,08,29,04,25,14.40
2012,08,29,04,26,14.40
2012,08,29,04,27,14.30
2012,08,29,04,28,14.30
2012,08,29,04,29,14.30
2012,08,29,04,30,14.30
2012,08,29,04,31,14.30
2012,08,29,04,32,14.20
2012,08,29,04,33,14.20
2012,08,29,04,34,14.20
2012,08,29,04,35,14.20
2012,08,29,04,36,14.20
2012,08,29,04,37,14.10
2012,08,29,04,38,14.10
2012,08,29,04,39,14.10
2012,08,29,04,40,14.10
2012,08,29,04,41,14.10
2012,08,29,04,42,14.10
2012,08,29,04,43,14.10
2012,08,29,04,44,14.10
2012,08,29,04,45,14.10
2012,08,29,04,46,14.00
2012,08,29,04,47,14.00
2012,08,29,04,48,14.00
2012,08,29,04,49,14.00
2012,08,29,04,50,14.00
2012,08,29,04,51,14.00
2012,08,29,04,52,14.00
2012,08,29,04,53,14.00
2012,08,29,04,54,14.00
2012,08,29,04,55,13.90
2012,08,29,04,56,13.90
2012,08,29,04,57,14.00
2012,08,29,04,58,14.00
2012,08,29,04,59,14.00
2012,08,29,05,00,14.00
2012,08,29,05,01,13.90
2012,08,29,05,02,14.00
2012,08,29,05,03,13.90
2012,08,29,05,04,13.90
2012,08,29,05,05,13.90
2012,08,29,05,06,13.90
2012,08,29,05,07,13.90
2012,08,29,05,08,13.90
2012,08,29,05,09,13.90
2012,08,29,05,10,13.90
2012,08,29,05,11,13.90
2012,08,29,05,12,13.90
2012,08,29,05,13,13.90
2012,08,29,05,14,13.90
2012,08,29,05,15,13.90
2012,08,29,05,16,13.90
2012,08,29,05,17,13.90
2012,08,29,05,18,13.90
2012,08,29,05,19,13.90
2012,08,29,05,20,13.90
2012,08,29,05,21,14.00
2012,08,29,05,22,14.00
2012,08,29,05,23,14.00
2012,08,29,05,24,14.00
2012,08,29,05,25,14.00
2012,08,29,05,26,14.00
2012,08,29,05,27,14.10
2012,08,29,05,28,14.10
2012,08,29,05,29,14.10
2012,08,29,05,30,14.10
2012,08,29,05,31,14.10
2012,08,29,05,32,14.10
2012,08,29,05,33,14.00
2012,08,29,05,34,14.00
2012,08,29,05,35,14.00
2012,08,29,05,36,14.00
2012,08,29,05,37,13.90
2012,08,29,05,38,13.90
2012,08,29,05,39,13.90
2012,08,29,05,40,13.90
2012,08,29,05,41,13.90
2012,08,29,05,42,13.80
2012,08,29,05,43,13.80
2012,08,29,05,44,13.80
2012,08,29,05,45,13.80
2012,08,29,05,46,13.70
2012,08,29,05,47,13.70
2012,08,29,05,48,13.70
2012,08,29,05,49,13.70
2012,08,29,05,50,13.70
2012,08,29,05,51,13.60
2012,08,29,05,52,13.60
2012,08,29,05,53,13.60
2012,08,29,05,54,13.60
2012,08,29,05,55,13.60
2012,08,29,05,56,13.60
2012,08,29,05,57,13.60
2012,08,29,05,58,13.60
2012,08,29,05,59,13.60
2012,08,29,06,00,13.50
2012,08,29,06,01,13.50
2012,08,29,06,02,13.50
2012,08,29,06,03,13.50
2012,08,29,06,04,13.40
2012,08,29,06,05,13.40
2012,08,29,06,06,13.30
2012,08,29,06,07,13.30
2012,08,29,06,08,13.20
2012,08,29,06,09,13.20
2012,08,29,06,10,13.20
2012,08,29,06,11,13.10
2012,08,29,06,12,13.10
2012,08,29,06,13,13.00
2012,08,29,06,14,13.00
2012,08,29,06,15,13.00
2012,08,29,06,16,12.90
2012,08,29,06,17,12.90
2012,08,29,06,18,12.90
2012,08,29,06,19,12.90
2012,08,29,06,20,12.90
2012,08,29,06,21,12.80
2012,08,29,06,22,12.80
2012,08,29,06,23,12.80
2012,08,29,06,24,12.80
2012,08,29,06,25,12.80
2012,08,29,06,26,12.80
2012,08,29,06,27,12.80
2012,08,29,06,28,12.80
2012,08,29,06,29,12.80
2012,08,29,06,30,12.80
2012,08,29,06,31,12.80
2012,08,29,06,32,12.80
2012,08,29,06,33,12.70
2012,08,29,06,34,12.70
2012,08,29,06,35,12.80
2012,08,29,06,36,12.80
2012,08,29,06,37,12.80
2012,08,29,06,38,12.70
2012,08,29,06,39,12.70
2012,08,29,06,40,12.70
2012,08,29,06,41,12.70
2012,08,29,06,42,12.80
2012,08,29,06,43,12.80
2012,08,29,06,44,12.80
2012,08,29,06,45,12.80
2012,08,29,06,46,12.80
2012,08,29,06,47,12.80
2012,08,29,06,48,12.80
2012,08,29,06,49,12.80
2012,08,29,06,50,12.80
2012,08,29,06,51,12.70
2012,08,29,06,52,12.70
2012,08,29,06,53,12.70
2012,08,29,06,54,12.70
2012,08,29,06,55,12.70
2012,08,29,06,56,12.60
2012,08,29,06,57,12.60
2012,08,29,06,58,12.60
2012,08,29,06,59,12.60
2012,08,29,07,00,12.60
2012,08,29,07,01,12.60
2012,08,29,07,02,12.60
2012,08,29,07,03,12.60
2012,08,29,07,04,12.60
2012,08,29,07,05,12.70
2012,08,29,07,06,12.70
2012,08,29,07,07,12.70
2012,08,29,07,08,12.70
2012,08,29,07,09,12.80
2012,08,29,07,10,12.80
2012,08,29,07,11,12.80
2012,08,29,07,12,12.80
2012,08,29,07,13,12.80
2012,08,29,07,14,12.90
2012,08,29,07,15,12.90
2012,08,29,07,16,12.90
2012,08,29,07,17,12.90
2012,08,29,07,18,12.90
2012,08,29,07,19,13.00
2012,08,29,07,20,13.00
2012,08,29,07,21,13.00
2012,08,29,07,22,13.00
2012,08,29,07,23,13.00
2012,08,29,07,24,13.00
2012,08,29,07,25,13.10
2012,08,29,07,26,13.10
2012,08,29,07,27,13.10
2012,08,29,07,28,13.10
2012,08,29,07,29,13.10
2012,08,29,07,30,13.10
2012,08,29,07,31,13.10
2012,08,29,07,32,13.20
2012,08,29,07,33,13.20
2012,08,29,07,34,13.20
2012,08,29,07,35,13.20
2012,08,29,07,36,13.20
2012,08,29,07,37,13.30
2012,08,29,07,38,13.30
2012,08,29,07,39,13.30
2012,08,29,07,40,13.30
2012,08,29,07,41,13.30
2012,08,29,07,42,13.30
2012,08,29,07,43,13.30
2012,08,29,07,44,13.30
2012,08,29,07,45,13.30
2012,08,29,07,46,13.30
2012,08,29,07,47,13.30
2012,08,29,07,48,13.30
2012,08,29,07,49,13.30
2012,08,29,07,50,13.30
2012,08,29,07,51,13.30
2012,08,29,07,52,13.30
2012,08,29,07,53,13.30
2012,08,29,07,54,13.30
2012,08,29,07,55,13.30
2012,08,29,07,56,13.30
2012,08,29,07,57,13.30
2012,08,29,07,58,13.40
2012,08,29,07,59,13.40
2012,08,29,08,00,13.40
2012,08,29,08,01,13.40
2012,08,29,08,02,13.40
2012,08,29,08,03,13.40
2012,08,29,08,04,13.50
2012,08,29,08,05,13.50
2012,08,29,08,06,13.50
2012,08,29,08,07,13.50
2012,08,29,08,08,13.50
2012,08,29,08,09,13.60
2012,08,29,08,10,13.60
2012,08,29,08,11,13.60
2012,08,29,08,12,13.60
2012,08,29,08,13,13.60
2012,08,29,08,14,13.60
2012,08,29,08,15,13.60
2012,08,29,08,16,13.60
2012,08,29,08,17,13.60
2012,08,29,08,18,13.70
2012,08,29,08,19,13.70
2012,08,29,08,20,13.70
2012,08,29,08,21,13.70
2012,08,29,08,22,13.70
2012,08,29,08,23,13.70
2012,08,29,08,24,13.80
2012,08,29,08,25,13.80
2012,08,29,08,26,13.80
2012,08,29,08,27,13.80
2012,08,29,08,28,13.90
2012,08,29,08,29,13.90
2012,08,29,08,30,13.90
2012,08,29,08,31,13.90
2012,08,29,08,32,14.00
2012,08,29,08,33,14.00
2012,08,29,08,34,14.10
2012,08,29,08,35,14.10
2012,08,29,08,36,14.10
2012,08,29,08,37,14.20
2012,08,29,08,38,14.20
2012,08,29,08,39,14.20
2012,08,29,08,40,14.20
2012,08,29,08,41,14.20
2012,08,29,08,42,14.20
2012,08,29,08,43,14.20
2012,08,29,08,44,14.20
2012,08,29,08,45,14.20
2012,08,29,08,46,14.20
2012,08,29,08,47,14.20
2012,08,29,08,48,14.20
2012,08,29,08,49,14.20
2012,08,29,08,50,14.20
2012,08,29,08,51,14.20
2012,08,29,08,52,14.20
2012,08,29,08,53,14.20
2012,08,29,08,54,14.30
2012,08,29,08,55,14.30
2012,08,29,08,56,14.30
2012,08,29,08,57,14.40
2012,08,29,08,58,14.40
2012,08,29,08,59,14.50
2012,08,29,09,00,14.50
2012,08,29,09,01,14.60
2012,08,29,09,02,14.60
2012,08,29,09,03,14.70
2012,08,29,09,04,14.80
2012,08,29,09,05,14.80
2012,08,29,09,06,15.00
2012,08,29,09,07,15.00
2012,08,29,09,08,15.00
2012,08,29,09,09,15.00
2012,08,29,09,10,15.00
2012,08,29,09,11,15.00
2012,08,29,09,12,15.10
2012,08,29,09,13,15.20
2012,08,29,09,14,15.20
2012,08,29,09,15,15.20
2012,08,29,09,16,15.30
2012,08,29,09,17,15.30
2012,08,29,09,18,15.30
2012,08,29,09,19,15.30
2012,08,29,09,20,15.40
2012,08,29,09,21,15.40
2012,08,29,09,22,15.40
2012,08,29,09,23,15.50
2012,08,29,09,24,15.50
2012,08,29,09,25,15.50
2012,08,29,09,26,15.60
2012,08,29,09,27,15.60
2012,08,29,09,28,15.60
2012,08,29,09,29,15.60
2012,08,29,09,30,15.60
2012,08,29,09,31,15.60
2012,08,29,09,32,15.60
2012,08,29,09,33,15.60
2012,08,29,09,34,15.60
2012,08,29,09,35,15.60
2012,08,29,09,36,15.60
2012,08,29,09,37,15.60
2012,08,29,09,38,15.60
2012,08,29,09,39,15.50
2012,08,29,09,40,15.50
2012,08,29,09,41,15.50
2012,08,29,09,42,15.40
2012,08,29,09,43,15.40
2012,08,29,09,44,15.40
2012,08,29,09,45,15.40
2012,08,29,09,46,15.40
2012,08,29,09,47,15.40
2012,08,29,09,48,15.40
2012,08,29,09,49,15.40
2012,08,29,09,50,15.40
2012,08,29,09,51,15.40
2012,08,29,09,52,15.40
2012,08,29,09,53,15.40
2012,08,29,09,54,15.40
2012,08,29,09,55,15.40
2012,08,29,09,56,15.40
2012,08,29,09,57,15.50
2012,08,29,09,58,15.50
2012,08,29,09,59,15.60
2012,08,29,10,00,15.60
2012,08,29,10,01,15.60
2012,08,29,10,02,15.60
2012,08,29,10,03,15.70
2012,08,29,10,04,15.70
2012,08,29,10,05,15.70
2012,08,29,10,06,15.70
2012,08,29,10,07,15.70
2012,08,29,10,08,15.70
2012,08,29,10,09,15.70
2012,08,29,10,10,15.70
2012,08,29,10,11,15.70
2012,08,29,10,12,15.70
2012,08,29,10,13,15.70
2012,08,29,10,14,15.70
2012,08,29,10,15,15.60
2012,08,29,10,16,15.70
2012,08,29,10,17,15.70
2012,08,29,10,18,15.70
2012,08,29,10,19,15.80
2012,08,29,10,20,15.80
2012,08,29,10,21,15.90
2012,08,29,10,22,15.90
2012,08,29,10,23,16.00
2012,08,29,10,24,16.00
2012,08,29,10,25,16.10
2012,08,29,10,26,16.20
2012,08,29,10,27,16.20
2012,08,29,10,28,16.30
2012,08,29,10,29,16.30
2012,08,29,10,30,16.30
2012,08,29,10,31,16.30
2012,08,29,10,32,16.30
2012,08,29,10,33,16.30
2012,08,29,10,34,16.20
2012,08,29,10,35,16.20
2012,08,29,10,36,16.20
2012,08,29,10,37,16.20
2012,08,29,10,38,16.10
2012,08,29,10,39,16.10
2012,08,29,10,40,16.00
2012,08,29,10,41,16.00
2012,08,29,10,42,16.00
2012,08,29,10,43,16.00
2012,08,29,10,44,16.00
2012,08,29,10,45,16.00
2012,08,29,10,46,16.00
2012,08,29,10,47,16.00
2012,08,29,10,48,16.10
2012,08,29,10,49,16.10
2012,08,29,10,50,16.20
2012,08,29,10,51,16.20
2012,08,29,10,52,16.30
2012,08,29,10,53,16.30
2012,08,29,10,54,16.30
2012,08,29,10,55,16.30
2012,08,29,10,56,16.30
2012,08,29,10,57,16.30
2012,08,29,10,58,16.30
2012,08,29,10,59,16.30
2012,08,29,11,00,16.30
2012,08,29,11,01,16.30
2012,08,29,11,02,16.30
2012,08,29,11,03,16.30
2012,08,29,11,04,16.30
2012,08,29,11,05,16.30
2012,08,29,11,06,16.40
2012,08,29,11,07,16.40
2012,08,29,11,08,16.50
2012,08,29,11,09,16.50
2012,08,29,11,10,16.60
2012,08,29,11,11,16.60
2012,08,29,11,12,16.60
2012,08,29,11,13,16.60
2012,08,29,11,14,16.60
2012,08,29,11,15,16.60
2012,08,29,11,16,16.60
2012,08,29,11,17,16.60
2012,08,29,11,18,16.70
2012,08,29,11,19,16.70
2012,08,29,11,20,16.70
2012,08,29,11,21,16.70
2012,08,29,11,22,16.70
2012,08,29,11,23,16.70
2012,08,29,11,24,16.80
2012,08,29,11,25,16.80
2012,08,29,11,26,16.90
2012,08,29,11,27,16.90
2012,08,29,11,28,16.90
2012,08,29,11,29,16.90
2012,08,29,11,30,16.90
2012,08,29,11,31,17.00
2012,08,29,11,32,17.00
2012,08,29,11,33,17.00
2012,08,29,11,34,17.10
2012,08,29,11,35,17.20
2012,08,29,11,36,17.20
2012,08,29,11,37,17.20
2012,08,29,11,38,17.20
2012,08,29,11,39,17.20
2012,08,29,11,40,17.30
2012,08,29,11,41,17.30
2012,08,29,11,42,17.30
2012,08,29,11,43,17.30
2012,08,29,11,44,17.40
2012,08,29,11,45,17.40
2012,08,29,11,46,17.40
2012,08,29,11,47,17.50
2012,08,29,11,48,17.50
2012,08,29,11,49,17.50
2012,08,29,11,50,17.60
2012,08,29,11,51,17.60
2012,08,29,11,52,17.60
2012,08,29,11,53,17.60
2012,08,29,11,54,17.60
2012,08,29,11,55,17.60
2012,08,29,11,56,17.60
2012,08,29,11,57,17.60
2012,08,29,11,58,17.60
2012,08,29,11,59,17.60
2012,08,29,12,00,17.60
2012,08,29,12,01,17.60
2012,08,29,12,02,17.60
2012,08,29,12,03,17.60
2012,08,29,12,04,17.60
2012,08,29,12,05,17.60
2012,08,29,12,06,17.60
2012,08,29,12,07,17.70
2012,08,29,12,08,17.70
2012,08,29,12,09,17.70
2012,08,29,12,10,17.80
2012,08,29,12,11,17.80
2012,08,29,12,12,17.90
2012,08,29,12,13,18.00
2012,08,29,12,14,18.10
2012,08,29,12,15,18.20
2012,08,29,12,16,18.30
2012,08,29,12,17,18.40
2012,08,29,12,18,18.40
2012,08,29,12,19,18.50
2012,08,29,12,20,18.60
2012,08,29,12,21,18.60
2012,08,29,12,22,18.60
2012,08,29,12,23,18.60
2012,08,29,12,24,18.60
2012,08,29,12,25,18.70
2012,08,29,12,26,18.70
2012,08,29,12,27,18.80
2012,08,29,12,28,18.90
2012,08,29,12,29,18.90
2012,08,29,12,30,18.90
2012,08,29,12,31,18.90
2012,08,29,12,32,18.90
2012,08,29,12,33,19.00
2012,08,29,12,34,19.00
2012,08,29,12,35,19.10
2012,08,29,12,36,19.10
2012,08,29,12,37,19.10
2012,08,29,12,38,19.20
2012,08,29,12,39,19.20
2012,08,29,12,40,19.30
2012,08,29,12,41,19.40
2012,08,29,12,42,19.40
2012,08,29,12,43,19.50
2012,08,29,12,44,19.60
2012,08,29,12,45,19.60
2012,08,29,12,46,19.60
2012,08,29,12,47,19.60
2012,08,29,12,48,19.70
2012,08,29,12,49,19.60
2012,08,29,12,50,19.60
2012,08,29,12,51,19.70
2012,08,29,12,52,19.70
2012,08,29,12,53,19.60
2012,08,29,12,54,19.60
2012,08,29,12,55,19.60
2012,08,29,12,56,19.60
2012,08,29,12,57,19.70
2012,08,29,12,58,19.60
2012,08,29,12,59,19.70
2012,08,29,13,00,19.70
2012,08,29,13,01,19.70
2012,08,29,13,02,19.70
2012,08,29,13,03,19.70
2012,08,29,13,04,19.70
2012,08,29,13,05,19.40
2012,08,29,13,06,19.20
2012,08,29,13,07,19.10
2012,08,29,13,08,19.00
2012,08,29,13,09,18.90
2012,08,29,13,10,18.80
2012,08,29,13,11,18.80
2012,08,29,13,12,18.80
2012,08,29,13,13,18.80
2012,08,29,13,14,18.90
2012,08,29,13,15,19.00
2012,08,29,13,16,19.10
2012,08,29,13,17,19.20
2012,08,29,13,18,19.20
2012,08,29,13,19,19.20
2012,08,29,13,20,19.30
2012,08,29,13,21,19.20
2012,08,29,13,22,19.20
2012,08,29,13,23,19.30
2012,08,29,13,24,19.30
2012,08,29,13,25,19.40
2012,08,29,13,26,19.40
2012,08,29,13,27,19.40
2012,08,29,13,28,19.50
2012,08,29,13,29,19.40
2012,08,29,13,30,19.30
2012,08,29,13,31,19.20
2012,08,29,13,32,19.10
2012,08,29,13,33,19.10
2012,08,29,13,34,19.10
2012,08,29,13,35,19.10
2012,08,29,13,36,19.20
2012,08,29,13,37,19.30
2012,08,29,13,38,19.40
2012,08,29,13,39,19.40
2012,08,29,13,40,19.50
2012,08,29,13,41,19.50
2012,08,29,13,42,19.60
2012,08,29,13,43,19.60
2012,08,29,13,44,19.70
2012,08,29,13,45,19.80
2012,08,29,13,46,19.80
2012,08,29,13,47,19.90
2012,08,29,13,48,19.90
2012,08,29,13,49,19.90
2012,08,29,13,50,19.80
2012,08,29,13,51,19.70
2012,08,29,13,52,19.50
2012,08,29,13,53,19.40
2012,08,29,13,54,19.40
2012,08,29,13,55,19.40
2012,08,29,13,56,19.40
2012,08,29,13,57,19.50
2012,08,29,13,58,19.50
2012,08,29,13,59,19.50
2012,08,29,14,00,19.60
2012,08,29,14,01,19.70
2012,08,29,14,02,19.80
2012,08,29,14,03,19.80
2012,08,29,14,04,19.90
2012,08,29,14,05,19.90
2012,08,29,14,06,19.90
2012,08,29,14,07,19.90
2012,08,29,14,08,19.80
2012,08,29,14,09,19.80
2012,08,29,14,10,19.70
2012,08,29,14,11,19.70
2012,08,29,14,12,19.70
2012,08,29,14,13,19.60
2012,08,29,14,14,19.50
2012,08,29,14,15,19.50
2012,08,29,14,16,19.40
2012,08,29,14,17,19.30
2012,08,29,14,18,19.20
2012,08,29,14,19,19.20
2012,08,29,14,20,19.10
2012,08,29,14,21,19.10
2012,08,29,14,22,19.10
2012,08,29,14,23,19.00
2012,08,29,14,24,19.00
2012,08,29,14,25,19.00
2012,08,29,14,26,19.00
2012,08,29,14,27,19.00
2012,08,29,14,28,19.00
2012,08,29,14,29,19.00
2012,08,29,14,30,19.00
2012,08,29,14,31,19.10
2012,08,29,14,32,19.10
2012,08,29,14,33,19.10
2012,08,29,14,34,19.10
2012,08,29,14,35,19.10
2012,08,29,14,36,19.10
2012,08,29,14,37,19.10
2012,08,29,14,38,19.20
2012,08,29,14,39,19.20
2012,08,29,14,40,19.30
2012,08,29,14,41,19.30
2012,08,29,14,42,19.30
2012,08,29,14,43,19.30
2012,08,29,14,44,19.40
2012,08,29,14,45,19.30
2012,08,29,14,46,19.30
2012,08,29,14,47,19.30
2012,08,29,14,48,19.30
2012,08,29,14,49,19.30
2012,08,29,14,50,19.20
2012,08,29,14,51,19.20
2012,08,29,14,52,19.10
2012,08,29,14,53,19.10
2012,08,29,14,54,19.00
2012,08,29,14,55,18.90
2012,08,29,14,56,18.90
2012,08,29,14,57,19.00
2012,08,29,14,58,19.00
2012,08,29,14,59,19.00
2012,08,29,15,00,19.00
2012,08,29,15,01,18.90
2012,08,29,15,02,18.90
2012,08,29,15,03,18.90
2012,08,29,15,04,18.90
2012,08,29,15,05,18.90
2012,08,29,15,06,18.90
2012,08,29,15,07,18.90
2012,08,29,15,08,18.90
2012,08,29,15,09,19.00
2012,08,29,15,10,19.00
2012,08,29,15,11,19.10
2012,08,29,15,12,19.20
2012,08,29,15,13,19.30
2012,08,29,15,14,19.40
2012,08,29,15,15,19.50
2012,08,29,15,16,19.60
2012,08,29,15,17,19.60
2012,08,29,15,18,19.60
2012,08,29,15,19,19.70
2012,08,29,15,20,19.70
2012,08,29,15,21,19.80
2012,08,29,15,22,19.80
2012,08,29,15,23,19.90
2012,08,29,15,24,20.00
2012,08,29,15,25,20.10
2012,08,29,15,26,20.20
2012,08,29,15,27,20.20
2012,08,29,15,28,20.30
2012,08,29,15,29,20.30
2012,08,29,15,30,20.30
2012,08,29,15,31,20.20
2012,08,29,15,32,20.20
2012,08,29,15,33,20.20
2012,08,29,15,34,20.10
2012,08,29,15,35,19.90
2012,08,29,15,36,19.80
2012,08,29,15,37,19.80
2012,08,29,15,38,19.70
2012,08,29,15,39,19.70
2012,08,29,15,40,19.60
2012,08,29,15,41,19.50
2012,08,29,15,42,19.50
2012,08,29,15,43,19.40
2012,08,29,15,44,19.30
2012,08,29,15,45,19.30
2012,08,29,15,46,19.20
2012,08,29,15,47,19.20
2012,08,29,15,48,19.20
2012,08,29,15,49,19.20
2012,08,29,15,50,19.20
2012,08,29,15,51,19.20
2012,08,29,15,52,19.20
2012,08,29,15,53,19.20
2012,08,29,15,54,19.20
2012,08,29,15,55,19.10
2012,08,29,15,56,19.10
2012,08,29,15,57,19.10
2012,08,29,15,58,19.10
2012,08,29,15,59,19.00
2012,08,29,16,00,19.00
2012,08,29,16,01,18.90
2012,08,29,16,02,18.80
2012,08,29,16,03,18.80
2012,08,29,16,04,18.70
2012,08,29,16,05,18.60
2012,08,29,16,06,18.60
2012,08,29,16,07,18.50
2012,08,29,16,08,18.50
2012,08,29,16,09,18.40
2012,08,29,16,10,18.40
2012,08,29,16,11,18.40
2012,08,29,16,12,18.30
2012,08,29,16,13,18.30
2012,08,29,16,14,18.30
2012,08,29,16,15,18.20
2012,08,29,16,16,18.20
2012,08,29,16,17,18.20
2012,08,29,16,18,18.20
2012,08,29,16,19,18.20
2012,08,29,16,20,18.20
2012,08,29,16,21,18.20
2012,08,29,16,22,18.20
2012,08,29,16,23,18.20
2012,08,29,16,24,18.20
2012,08,29,16,25,18.20
2012,08,29,16,26,18.20
2012,08,29,16,27,18.20
2012,08,29,16,28,18.20
2012,08,29,16,29,18.20
2012,08,29,16,30,18.30
2012,08,29,16,31,18.30
2012,08,29,16,32,18.30
2012,08,29,16,33,18.40
2012,08,29,16,34,18.40
2012,08,29,16,35,18.40
2012,08,29,16,36,18.40
2012,08,29,16,37,18.40
2012,08,29,16,38,18.40
2012,08,29,16,39,18.40
2012,08,29,16,40,18.30
2012,08,29,16,41,18.30
2012,08,29,16,42,18.30
2012,08,29,16,43,18.30
2012,08,29,16,44,18.30
2012,08,29,16,45,18.30
2012,08,29,16,46,18.30
2012,08,29,16,47,18.40
2012,08,29,16,48,18.40
2012,08,29,16,49,18.40
2012,08,29,16,50,18.40
2012,08,29,16,51,18.40
2012,08,29,16,52,18.40
2012,08,29,16,53,18.50
2012,08,29,16,54,18.50
2012,08,29,16,55,18.50
2012,08,29,16,56,18.50
2012,08,29,16,57,18.60
2012,08,29,16,58,18.60
2012,08,29,16,59,18.60
2012,08,29,17,00,18.60
2012,08,29,17,01,18.60
2012,08,29,17,02,18.60
2012,08,29,17,03,18.60
2012,08,29,17,04,18.60
2012,08,29,17,05,18.70
2012,08,29,17,06,18.70
2012,08,29,17,07,18.70
2012,08,29,17,08,18.70
2012,08,29,17,09,18.70
2012,08,29,17,10,18.80
2012,08,29,17,11,18.80
2012,08,29,17,12,18.80
2012,08,29,17,13,18.80
2012,08,29,17,14,18.80
2012,08,29,17,15,18.80
2012,08,29,17,16,18.80
2012,08,29,17,17,18.80
2012,08,29,17,18,18.70
2012,08,29,17,19,18.70
2012,08,29,17,20,18.70
2012,08,29,17,21,18.70
2012,08,29,17,22,18.70